Theta_e
331 330 329 329 328 328 327 328 327 327 327 326 327 326 325 325 324 323 323 323 322 322 324 325 326 328 331 332 331 330 330 330 329 330 330 330 329 328 328 327 328 326 324 326 325 320 319 316 312 310 308 309 308 308 307 307 307 306 306 305 305 305 305 305 305 305 306 306 307 307 307 307 307 307 307 308 307 307 307 307 308 308 308 308 308
329 328 328 329 328 328 328 328 328 327 327 327 328 328 327 326 326 326 326 325 325 324 326 327 327 327 328 329 330 330 330 329 329 329 329 329 328 327 328 327 327 326 323 324 324 322 323 320 316 312 309 309 308 309 308 308 308 307 307 306 306 305 305 305 305 305 305 305 306 306 306 307 307 307 307 308 308 307 308 307 308 308 308 308 308
327 326 327 328 328 328 329 328 328 328 327 327 328 328 327 327 326 327 327 328 328 327 327 327 328 328 328 328 328 328 329 329 328 329 328 328 328 328 328 327 326 326 323 324 323 322 325 323 322 318 313 311 309 309 309 308 308 308 308 308 307 307 306 306 305 305 305 304 305 305 306 306 306 307 307 308 308 308 308 308 308 308 307 308 307
326 326 328 328 328 328 329 328 328 328 327 328 328 327 327 327 326 326 326 327 328 328 327 326 327 329 329 328 329 329 328 328 328 329 328 328 328 327 327 327 326 326 325 324 322 321 324 325 326 323 318 317 314 312 311 310 309 309 309 309 308 308 308 307 306 305 305 304 305 305 305 305 306 306 306 307 308 308 308 308 308 308 308 308 307
326 327 328 328 328 328 328 329 328 328 328 328 328 327 327 327 327 326 326 326 326 327 326 326 327 328 329 329 329 329 328 327 328 328 328 328 328 327 327 327 326 327 326 325 323 321 321 322 324 323 321 322 319 316 315 313 312 311 310 310 309 309 309 308 307 306 305 305 304 304 305 305 305 305 305 306 307 307 308 308 308 308 308 308 308
325 327 328 329 329 327 328 329 329 328 328 328 328 327 327 327 327 327 325 325 325 326 327 327 327 328 329 329 328 327 327 327 328 328 328 327 327 327 327 326 326 326 325 325 323 321 320 320 323 323 322 323 323 321 320 317 316 314 312 311 310 310 309 308 307 307 306 305 304 304 303 304 304 304 305 306 306 307 308 308 308 308 308 308 308
325 326 327 329 329 328 328 329 329 329 328 328 328 327 327 327 327 326 325 325 325 327 328 327 328 328 328 328 328 327 326 327 327 328 327 327 328 327 326 326 325 325 325 323 323 322 321 321 324 323 322 323 323 324 323 320 320 318 313 310 308 308 307 307 307 307 307 306 305 304 303 303 303 304 305 305 306 306 307 308 308 308 308 308 308
326 327 327 328 329 328 329 329 329 329 328 328 328 327 327 327 327 326 326 326 326 326 326 327 327 328 328 328 328 327 326 326 327 327 326 327 328 327 327 327 326 325 325 323 322 323 322 321 322 321 322 323 323 324 323 322 323 320 314 312 309 307 306 306 306 307 306 306 305 304 303 303 303 304 305 306 306 307 308 308 308 308 308 308 307
328 328 327 328 328 328 329 329 329 329 328 328 327 327 327 327 327 327 326 326 326 326 326 326 327 328 329 328 327 326 326 326 326 326 326 327 328 327 327 327 326 326 324 323 323 324 323 324 323 320 321 322 322 323 322 323 324 322 318 316 314 313 312 311 310 309 309 308 308 307 306 306 306 307 307 307 307 308 308 308 308 308 308 308 307
328 328 327 327 327 328 329 329 328 328 328 327 327 327 327 327 327 326 327 326 326 326 326 326 327 328 328 328 327 326 325 326 326 326 326 328 328 327 327 327 326 326 325 324 324 324 324 326 324 322 321 321 322 323 323 324 325 323 322 321 320 321 320 318 316 315 315 314 313 312 311 311 311 310 310 309 309 309 309 308 308 307 307 307 307
327 327 327 328 328 328 328 328 328 327 327 327 326 326 326 325 325 326 326 326 326 327 326 326 326 327 328 327 326 326 325 325 326 327 327 327 328 327 327 326 326 325 325 325 324 324 325 326 324 323 322 322 324 324 324 324 325 324 324 324 324 324 325 324 322 321 321 320 319 316 314 313 313 312 311 310 310 309 309 308 308 307 307 307 308
326 327 327 328 328 328 328 328 328 328 328 328 327 326 325 324 324 326 326 326 326 326 326 325 327 328 327 327 326 326 326 326 326 327 328 328 328 326 326 325 324 324 325 325 324 324 325 325 324 323 322 323 324 324 324 325 325 325 324 325 325 325 325 325 326 326 325 325 324 322 320 317 315 314 312 311 310 309 309 308 308 308 308 308 308
326 327 327 327 328 328 328 328 328 328 328 328 326 326 325 324 325 326 326 326 326 326 327 326 327 327 327 326 326 326 326 326 326 326 327 327 327 326 326 325 324 324 325 325 324 324 325 325 324 322 322 323 324 324 325 325 326 325 325 325 325 326 324 324 327 327 326 326 325 325 325 322 319 317 315 312 310 310 309 309 309 309 310 311 313
326 325 326 327 328 328 328 327 327 327 327 327 326 326 325 324 325 325 326 326 326 326 327 327 328 327 326 326 326 326 327 327 326 326 326 327 326 326 326 326 325 325 325 325 324 324 325 325 324 323 322 323 323 324 325 325 325 324 325 325 325 326 324 323 325 325 325 325 325 325 326 325 323 321 319 316 312 311 310 310 311 313 316 318 320
326 326 327 327 327 327 327 326 326 326 326 326 326 326 325 324 324 325 326 326 326 327 327 328 328 327 326 325 325 326 326 326 326 326 326 326 326 326 326 326 326 326 326 326 325 325 325 325 324 324 323 324 324 324 324 325 324 323 323 323 324 325 325 324 325 324 325 326 325 325 326 325 325 324 323 320 317 314 312 314 316 319 322 324 325
326 326 326 326 326 326 327 326 326 326 326 326 326 325 325 325 325 325 325 325 326 326 327 328 328 327 326 324 324 325 324 325 325 326 326 326 326 326 326 327 326 326 326 326 326 325 325 325 324 324 324 324 324 323 324 325 324 323 322 323 323 324 325 325 325 324 324 325 325 325 325 325 325 325 324 323 321 319 318 319 322 324 325 325 325
325 324 324 324 325 325 326 327 327 327 326 326 325 325 326 326 326 325 325 325 326 326 327 327 327 326 326 325 324 324 324 324 325 325 325 325 326 326 326 326 326 326 326 326 326 326 326 325 325 324 324 323 322 322 323 324 324 323 323 324 324 324 324 324 324 322 323 325 325 324 324 324 325 325 325 324 323 323 322 323 324 325 325 325 324
324 324 324 324 324 325 326 326 326 326 327 327 326 326 326 326 327 326 326 326 327 327 326 327 327 326 326 325 325 325 325 324 324 325 324 324 326 326 326 326 326 327 326 326 326 325 325 325 324 324 322 322 322 322 323 323 323 323 323 323 323 323 323 323 323 322 322 324 323 324 324 324 324 325 324 325 324 324 324 324 324 324 324 324 324
321 322 323 322 322 323 324 324 324 325 326 327 326 326 326 326 327 327 327 327 327 326 326 326 326 325 326 326 326 325 325 325 324 324 324 324 325 326 326 326 326 326 326 325 324 324 324 324 324 323 322 321 321 321 322 322 323 322 322 322 321 322 323 322 322 322 322 323 323 324 323 322 323 324 324 325 325 325 324 324 325 325 325 325 324
319 317 317 318 319 320 322 323 324 325 325 325 325 325 325 325 326 326 327 327 327 326 326 326 326 325 325 326 326 325 325 325 324 324 323 324 325 325 325 325 324 324 324 323 323 323 323 323 323 322 321 321 321 321 322 322 321 321 322 322 321 321 320 320 319 318 318 320 320 319 317 316 317 320 321 322 323 324 324 324 324 324 323 323 324
318 315 314 316 317 318 320 320 321 322 324 325 325 325 325 325 325 325 326 326 327 326 326 326 326 326 325 325 326 326 326 326 324 324 323 323 325 325 325 324 323 322 323 323 323 323 322 322 322 322 322 322 323 322 322 321 321 321 322 322 321 320 320 319 316 311 309 310 310 309 308 307 308 310 312 313 315 317 318 318 318 317 316 315 317
317 314 314 316 317 317 318 317 318 318 321 323 324 324 325 325 325 325 325 324 325 326 327 327 326 326 326 326 326 326 326 326 324 324 323 322 324 324 324 323 322 321 322 322 322 322 322 322 321 322 323 323 323 323 322 322 322 322 322 322 321 320 319 315 311 306 305 305 305 305 305 305 305 305 305 306 306 307 307 308 308 307 307 306 307
317 314 315 316 316 318 318 318 318 317 318 321 323 323 324 324 324 324 324 323 324 326 326 326 325 326 326 326 326 325 325 325 324 324 323 323 323 323 323 322 321 321 322 322 321 321 321 321 321 322 323 323 323 323 323 322 322 322 321 319 317 315 312 308 307 306 307 307 307 307 307 307 307 307 307 306 306 305 305 305 305 305 305 305 305
316 315 315 316 316 317 317 317 317 316 317 319 320 321 322 322 322 322 322 322 323 324 325 325 324 325 326 326 326 326 325 325 324 324 324 323 323 323 322 322 321 321 321 321 321 320 321 321 321 322 322 322 322 322 322 322 321 318 316 313 310 308 307 307 308 309 309 309 309 309 309 309 309 309 308 308 308 308 307 307 307 306 306 306 306
314 314 315 316 317 318 318 317 317 315 316 318 319 320 320 321 321 321 321 320 321 323 324 324 324 324 326 326 325 326 325 325 324 324 324 323 323 323 322 321 321 321 320 320 320 320 321 321 321 321 321 322 322 321 320 319 316 312 308 307 307 307 308 309 309 310 310 309 309 309 309 309 309 309 309 309 309 309 309 308 308 308 308 308 308
313 314 315 316 318 320 320 319 317 314 315 317 318 318 318 319 320 320 320 320 320 322 323 324 323 323 324 325 325 325 325 325 325 324 324 324 323 322 321 320 320 320 319 319 319 319 319 320 320 320 320 320 318 316 314 312 309 308 307 308 308 309 309 309 308 308 307 307 306 306 305 305 305 305 304 304 305 305 305 305 305 305 306 306 307
312 313 315 317 319 320 320 320 318 314 314 316 317 317 317 318 319 320 320 320 320 321 322 322 323 322 323 324 325 325 324 324 324 324 324 323 323 322 321 320 319 318 318 318 318 318 318 319 318 317 315 313 310 308 307 307 308 308 308 309 309 309 308 307 306 305 305 304 303 303 303 303 303 303 303 302 302 302 302 302 302 302 302 302 302
311 311 314 316 317 318 318 319 317 312 313 316 316 316 317 317 319 320 320 321 321 321 321 322 322 322 323 324 324 324 324 324 324 324 324 323 323 322 319 318 318 318 317 316 316 316 316 315 314 311 308 306 306 307 307 308 308 308 309 309 309 308 306 305 305 304 304 304 304 303 304 304 304 303 303 303 302 302 302 302 302 301 301 301 301
310 309 311 313 313 315 316 318 316 312 311 315 316 314 315 317 319 321 321 321 321 321 322 322 322 323 323 323 324 324 324 324 324 323 323 323 322 320 318 317 316 316 317 315 314 314 313 311 309 307 306 307 307 307 308 308 308 309 309 309 308 306 305 305 306 306 306 306 306 306 305 305 305 305 304 303 303 303 302 302 302 302 301 301 301
308 306 308 309 310 315 318 318 315 311 310 314 315 313 313 316 319 320 321 321 321 321 321 322 322 322 322 323 323 323 324 324 323 323 323 322 321 318 317 316 313 313 314 314 314 312 311 310 308 307 307 307 308 308 309 309 309 309 309 308 306 306 306 307 308 308 308 308 308 308 308 308 307 307 307 306 305 304 303 303 303 302 302 301 301
306 305 306 306 306 313 319 318 314 309 309 314 315 311 312 316 319 321 321 321 321 321 321 321 321 322 322 323 323 323 324 323 322 322 322 321 319 317 316 315 314 311 310 312 312 311 310 309 308 307 307 307 309 310 310 310 310 309 308 307 306 307 308 309 309 310 309 309 309 309 309 309 309 309 309 308 308 306 305 304 304 303 302 301 301
305 305 305 305 304 310 315 315 311 307 307 310 310 308 310 315 318 320 320 320 320 320 321 321 321 321 322 322 323 322 322 321 320 320 320 319 318 317 316 315 315 313 310 310 311 309 308 308 307 306 307 308 309 310 310 310 309 309 308 307 307 308 309 309 310 310 310 310 310 310 310 310 310 310 310 310 309 309 307 307 306 305 303 302 301
305 305 305 305 305 308 311 311 308 306 305 306 306 306 309 314 316 317 318 318 319 319 320 321 321 321 322 321 321 320 319 319 319 318 318 318 317 317 317 316 316 316 313 312 311 308 307 307 307 307 308 309 310 310 309 309 308 308 308 307 307 308 308 309 309 310 310 310 310 310 310 310 310 310 310 310 310 310 309 309 308 306 304 302 301
305 304 305 305 305 306 307 308 307 306 305 305 305 305 308 312 313 315 315 316 318 318 319 320 321 321 321 321 319 318 318 318 318 318 318 318 317 317 317 317 316 317 316 314 312 310 308 307 307 308 309 310 310 310 309 308 308 307 307 308 308 308 308 309 309 309 310 310 310 310 310 310 310 310 310 310 310 310 310 309 309 308 305 303 301
305 304 304 305 304 304 306 306 306 305 305 304 305 305 306 308 310 310 311 313 317 318 318 319 320 320 320 320 320 320 320 320 320 320 319 318 317 317 317 317 316 316 316 316 314 311 309 308 308 309 310 310 310 310 310 309 308 308 308 309 309 309 309 309 309 309 309 310 310 310 310 310 310 310 310 310 310 310 310 310 309 308 305 302 301
304 304 305 305 305 304 304 305 305 304 305 304 304 305 306 307 307 307 307 309 313 316 317 317 318 319 319 318 318 318 318 319 319 319 318 317 316 315 315 315 315 315 316 316 316 313 311 309 308 309 310 310 310 310 310 309 309 309 309 310 309 309 309 309 309 309 309 310 310 310 310 310 310 310 310 310 310 310 310 310 309 308 304 301 300
304 304 305 305 305 305 304 305 304 304 304 304 305 306 307 307 307 307 307 308 309 311 312 313 314 316 318 318 317 317 317 317 316 316 316 315 314 314 313 314 314 314 315 316 317 315 312 311 310 308 309 310 310 310 310 310 310 310 310 310 310 310 310 310 309 309 309 310 310 310 310 310 310 310 311 311 310 310 310 310 309 306 302 300 300
306 304 305 305 305 305 304 304 305 304 304 306 307 308 308 308 308 308 309 309 309 309 310 311 312 313 316 317 318 317 317 317 315 314 314 314 314 313 313 313 313 314 314 315 316 316 313 312 311 309 308 310 310 309 309 310 310 310 310 310 310 310 310 310 310 309 310 310 310 310 310 310 310 310 310 311 310 310 310 310 308 304 301 300 299
311 306 305 305 305 305 305 305 305 305 305 307 308 309 309 309 309 309 310 310 310 311 311 311 312 312 313 314 315 315 315 314 314 313 313 313 314 313 313 314 313 314 314 315 316 316 313 312 313 311 308 310 311 310 310 310 310 310 310 310 310 310 310 310 310 310 310 310 310 310 310 310 310 310 310 310 310 310 310 308 305 302 300 299 299
315 311 306 305 306 305 305 305 305 306 306 307 309 309 309 309 309 309 310 310 310 310 310 310 310 310 311 311 311 312 312 312 311 312 312 313 313 313 314 314 314 314 313 314 315 315 312 313 314 313 310 310 311 311 311 311 311 310 310 310 310 310 310 310 310 310 310 310 310 310 310 310 310 310 310 310 310 310 308 305 302 300 299 299 299
316 315 308 304 306 305 305 306 306 307 307 308 309 309 309 309 309 309 309 309 309 309 309 310 310 310 311 311 312 312 312 312 312 312 313 314 314 314 314 313 314 314 313 313 313 313 313 314 315 314 312 310 311 312 312 312 312 312 311 311 311 310 310 311 311 310 310 310 310 310 310 310 310 310 310 310 310 308 305 302 300 299 299 298 298
315 316 311 305 306 306 306 307 308 308 308 308 308 309 309 309 309 309 309 308 309 309 309 310 310 311 313 314 315 315 315 315 315 315 315 315 315 315 315 315 314 314 314 313 312 313 314 315 315 315 314 312 312 312 312 312 313 312 312 312 312 311 310 311 311 311 311 311 311 311 310 310 310 310 310 309 308 305 302 300 299 298 298 298 298
315 317 313 309 309 310 310 312 311 311 310 310 310 310 310 310 309 309 310 310 312 314 315 314 314 314 316 316 316 316 315 315 315 315 315 315 315 315 315 316 315 315 315 314 314 313 314 315 315 315 315 314 313 312 312 312 312 313 313 313 312 311 311 311 311 311 311 311 311 311 310 311 311 310 309 307 304 301 300 299 299 298 298 298 298
317 318 315 312 312 313 314 315 315 315 315 314 314 315 315 315 314 314 315 316 317 318 319 318 317 317 317 317 317 317 317 316 316 315 315 315 315 315 315 315 316 316 316 315 315 314 315 315 316 315 315 315 314 313 312 312 312 312 313 313 312 311 311 311 311 311 311 311 311 311 311 311 310 308 305 303 301 299 299 299 299 298 298 298 297
319 318 317 314 313 314 315 316 316 317 317 317 317 317 318 318 318 318 318 319 319 319 319 319 318 318 318 318 318 318 318 319 318 318 317 316 316 317 316 316 316 316 317 316 316 315 315 315 315 315 315 315 314 314 313 313 312 312 313 313 312 311 311 312 311 311 311 311 312 311 310 308 306 303 301 300 299 299 299 299 298 298 298 297 297
319 319 318 314 311 313 316 317 316 317 317 317 317 317 318 318 318 318 318 319 319 319 319 318 318 318 318 318 318 318 319 319 319 320 319 319 319 318 318 317 316 316 316 317 317 317 316 315 315 315 314 314 314 315 314 313 313 313 313 313 313 312 312 312 312 312 312 311 310 308 305 303 301 300 300 300 299 299 299 298 298 298 297 297 296
319 319 318 315 312 312 315 317 317 317 317 317 317 318 318 318 318 318 318 319 319 319 319 318 318 318 318 318 318 318 318 319 319 320 320 320 319 318 317 316 316 316 316 316 317 318 317 316 315 315 314 314 314 314 314 314 314 314 313 313 313 313 313 312 312 312 310 308 305 303 301 300 300 300 300 299 299 299 298 298 298 297 297 296 295
318 317 317 317 316 316 317 318 318 319 319 318 318 319 319 319 318 319 319 319 318 319 319 318 318 318 318 318 318 318 318 318 318 320 319 318 317 316 315 315 315 316 317 317 317 318 318 317 317 315 314 314 314 313 314 313 313 313 313 313 314 314 313 312 310 308 305 303 302 300 300 300 300 300 299 299 298 298 298 297 297 296 295 295 294
318 316 316 317 318 318 319 319 319 319 319 318 318 318 318 319 319 319 319 318 318 318 318 318 319 319 318 318 318 318 318 318 317 318 317 316 316 315 315 316 316 316 317 317 317 318 318 318 317 316 314 314 314 314 313 313 313 313 314 313 312 311 310 308 305 303 302 301 300 300 300 300 299 299 299 298 298 297 297 296 296 295 294 294 294
318 318 318 318 318 318 318 317 317 318 318 318 317 317 317 317 317 318 318 318 318 318 318 319 319 319 319 318 318 318 318 317 317 316 316 316 316 315 315 315 315 316 316 316 317 318 318 318 318 316 315 314 314 314 314 314 313 312 311 310 308 307 305 304 302 301 301 300 300 299 299 299 299 298 298 298 297 296 296 295 295 294 294 294 294
318 318 319 318 317 317 317 316 316 317 317 317 317 316 316 316 316 317 318 318 318 318 318 318 318 319 318 318 318 318 317 316 316 316 316 316 315 315 315 315 315 315 315 317 317 317 317 316 316 315 315 315 315 313 312 310 309 308 307 306 305 304 303 302 301 300 300 300 299 299 298 298 298 297 297 296 295 295 295 294 294 294 294 294 294
Wind_Speed
9 7 6 7 6 6 6 5 5 4 4 4 4 4 4 4 5 6 7 8 8 8 6 6 8 10 11 11 10 8 5 3 1 1 1 2 2 1 0 2 3 3 3 2 4 5 3 2 1 2 2 3 3 2 2 1 1 1 1 2 1 2 2 2 2 2 2 3 3 4 4 5 6 7 7 7 7 8 8 8 9 9 9 9 9
8 7 6 7 6 6 5 4 5 5 5 5 5 4 4 4 5 5 6 6 7 7 6 4 5 8 9 10 10 9 6 4 3 2 2 3 3 2 1 1 2 1 2 1 3 3 3 3 2 1 2 3 3 3 2 1 0 1 1 1 1 2 2 3 3 2 2 2 2 3 4 5 5 6 6 6 6 7 7 7 8 8 8 9 9
7 7 7 7 7 6 4 4 5 5 6 6 5 5 5 5 5 6 6 5 5 6 5 4 5 7 8 7 7 7 6 4 4 3 3 4 3 3 2 1 1 0 2 1 2 3 3 4 4 2 1 2 2 2 1 1 1 1 1 1 2 2 3 3 3 2 2 2 2 2 3 4 4 5 5 5 5 5 6 6 7 8 8 8 8
8 9 8 8 7 6 4 5 5 5 6 6 6 5 5 5 5 6 6 6 6 6 5 4 5 6 7 6 5 4 3 4 4 4 4 4 4 3 3 2 2 1 1 1 3 4 3 2 3 4 3 1 1 1 1 2 2 3 4 4 3 3 2 2 2 2 2 1 1 2 2 2 3 4 4 4 4 4 5 6 7 7 8 8 8
9 9 8 7 7 6 5 5 6 5 6 6 6 5 5 5 5 5 5 6 6 6 5 5 5 5 6 5 4 3 3 4 4 4 5 5 4 4 4 3 3 3 2 1 3 4 4 2 1 3 4 4 5 5 4 5 6 6 5 5 4 3 2 1 1 1 1 1 1 1 2 2 2 3 3 3 3 4 5 6 7 7 8 8 8
9 8 7 7 7 6 5 5 5 6 7 6 6 5 4 5 5 6 5 6 6 6 5 5 5 5 5 5 4 3 3 4 4 5 5 5 5 5 5 4 4 4 3 2 2 3 5 4 2 1 3 5 6 7 7 8 10 9 7 5 4 2 2 1 1 0 1 1 1 1 2 2 2 3 3 3 4 5 6 6 6 7 7 7 7
8 7 6 7 7 6 5 5 5 7 8 7 6 6 5 5 6 6 5 5 6 6 6 5 5 5 5 5 5 4 3 4 5 5 6 5 5 6 7 6 5 5 3 2 2 3 5 6 4 3 3 4 5 6 6 7 10 12 9 6 5 3 1 0 0 0 0 1 1 1 2 3 3 4 4 4 5 5 5 6 6 6 6 7 7
7 6 6 7 7 6 6 6 6 8 8 8 7 6 6 5 6 6 5 4 5 6 6 6 5 5 6 6 6 5 4 4 5 5 5 6 7 8 8 7 5 4 3 3 3 3 3 5 4 5 5 3 3 4 4 5 7 11 11 8 8 7 6 5 3 2 2 2 2 2 3 4 4 5 5 4 5 5 5 5 5 6 6 7 7
7 6 6 7 8 7 7 6 7 8 9 8 7 7 7 6 6 6 6 5 5 6 6 6 5 6 6 7 7 6 5 5 6 5 6 7 6 6 6 6 6 5 4 4 4 3 2 4 4 5 6 4 4 4 4 4 5 7 10 11 11 12 11 11 9 8 6 6 6 6 6 6 5 5 5 4 4 4 5 5 5 6 6 7 7
7 7 7 7 7 7 7 7 7 8 8 8 7 8 8 8 7 6 6 6 6 6 6 5 5 6 7 7 7 6 6 7 6 5 7 7 6 5 5 5 5 5 4 4 4 3 3 2 3 5 6 6 6 5 5 5 4 4 6 8 10 10 11 11 12 11 10 10 9 9 8 7 6 5 5 4 4 4 5 5 6 6 6 7 7
7 8 8 8 7 8 8 7 7 8 8 9 8 9 9 9 8 7 7 7 7 7 6 5 6 7 7 8 7 6 7 7 6 6 8 7 6 6 6 5 5 5 4 4 4 3 3 2 2 5 6 6 7 6 5 6 4 3 3 4 5 5 6 7 8 10 10 9 9 10 9 8 7 6 6 5 5 5 5 5 6 6 6 7 7
7 7 8 8 8 8 8 8 8 8 8 9 9 10 9 8 8 8 6 7 8 7 6 6 6 7 8 9 8 7 7 7 8 8 8 8 7 7 6 6 6 5 4 3 3 4 4 3 3 4 5 6 6 5 5 4 3 2 1 1 1 2 4 4 3 4 4 6 7 8 9 9 9 8 7 6 5 5 5 5 6 6 6 7 7
7 7 8 9 9 8 8 8 8 8 8 9 10 10 8 7 8 8 7 7 7 8 8 6 7 8 9 10 9 9 8 8 8 9 9 9 9 8 6 6 6 5 4 3 3 4 3 3 2 3 4 4 4 3 2 2 2 1 2 2 2 3 3 3 2 2 3 3 4 4 7 8 9 8 7 6 6 6 6 6 6 6 7 7 7
7 7 8 8 8 8 8 7 8 9 10 10 10 9 8 8 9 9 8 7 7 8 9 8 8 8 9 9 9 9 8 8 8 8 9 9 8 8 7 7 7 5 4 4 4 4 4 2 1 1 2 2 2 2 1 0 1 1 2 3 3 4 4 4 4 4 5 4 3 3 3 4 6 7 7 6 6 6 6 6 6 6 7 7 8
8 8 8 8 8 8 8 8 8 9 10 10 9 9 8 9 10 9 9 9 8 9 10 9 8 8 8 8 8 8 7 7 7 7 8 8 7 6 7 8 7 6 6 5 5 5 4 3 1 1 2 2 2 3 1 1 1 2 2 3 3 4 3 3 3 3 4 3 3 4 2 1 3 4 5 5 5 5 5 6 6 6 6 7 7
9 9 9 9 8 8 8 9 9 9 9 9 9 8 9 10 10 9 9 9 9 9 10 9 8 7 7 6 7 8 6 7 8 7 7 8 7 6 6 7 6 6 6 6 6 6 6 4 2 2 3 3 3 3 3 2 3 3 3 2 2 2 1 1 1 1 3 2 2 3 3 1 1 1 2 3 3 3 4 4 4 4 5 5 6
9 9 8 8 7 7 8 9 9 9 9 9 8 8 9 9 9 9 9 8 8 8 10 11 9 8 7 5 6 6 6 8 9 7 6 7 6 6 5 5 5 5 5 6 6 6 6 4 2 1 2 2 3 1 1 2 1 1 2 2 2 1 1 1 0 1 2 1 0 1 2 3 3 3 2 2 1 1 1 1 1 2 3 5 6
8 8 7 7 6 7 8 8 9 9 9 9 9 9 9 9 9 8 8 8 7 8 9 11 11 10 9 6 4 4 4 8 9 8 6 5 4 4 3 3 3 3 4 4 3 3 3 1 1 1 1 1 2 3 3 3 3 2 3 4 5 4 3 3 2 2 3 2 1 1 0 1 2 3 3 4 4 2 1 2 1 2 3 4 6
7 7 7 7 7 7 7 7 8 8 9 9 9 9 8 8 9 9 9 9 9 9 9 11 11 11 11 9 7 4 1 3 8 8 7 6 4 3 4 3 3 4 4 3 2 3 3 3 4 4 4 4 4 5 5 5 5 5 6 7 8 8 7 7 7 6 6 6 5 6 5 5 4 2 1 2 3 3 4 4 4 4 4 4 4
7 6 7 7 7 7 7 7 7 7 7 7 7 8 8 8 8 9 10 10 10 10 10 10 11 9 10 11 10 7 3 3 5 6 7 10 8 5 5 3 4 5 4 4 3 4 5 5 5 6 6 6 7 8 8 8 7 7 9 10 11 11 11 11 11 11 11 11 10 9 8 8 8 6 6 5 3 1 1 3 3 3 4 3 1
7 7 8 8 7 7 8 8 8 8 8 7 7 7 7 6 6 7 9 10 10 10 10 10 9 8 9 10 10 9 6 4 6 6 6 11 12 10 9 7 5 5 6 6 7 7 7 7 7 7 8 8 10 11 10 10 9 9 10 11 11 11 11 11 11 11 11 11 10 9 8 8 8 8 8 8 7 5 4 3 3 4 4 4 2
5 7 9 9 8 8 8 8 8 8 8 8 7 6 6 6 6 6 7 8 9 9 9 9 9 8 9 9 9 9 7 6 9 9 8 11 13 12 10 8 6 8 9 8 9 9 9 9 9 9 10 10 10 11 10 9 9 10 10 11 10 10 10 9 10 10 10 10 9 9 8 8 8 8 8 8 7 7 6 5 5 5 5 5 4
4 7 11 10 9 8 7 6 5 6 7 8 8 6 6 5 5 6 6 6 7 8 9 9 10 10 10 9 8 7 6 6 7 9 9 11 12 14 12 9 8 9 9 10 9 9 9 9 10 10 11 11 11 11 11 10 11 10 10 10 9 9 9 9 9 9 9 9 9 8 8 8 8 8 8 8 8 7 7 6 6 6 6 6 6
4 7 10 10 9 8 7 6 4 4 5 7 7 6 5 4 5 5 5 5 6 7 7 8 9 10 10 8 7 6 4 4 5 6 8 9 11 15 14 10 10 11 11 11 11 11 11 11 11 12 12 12 12 12 11 10 10 10 9 8 8 8 8 8 9 9 9 8 8 8 8 8 8 8 8 7 7 7 7 7 6 7 7 7 7
6 7 8 8 8 7 6 6 4 3 4 6 6 5 4 4 4 5 5 5 6 6 6 7 7 8 8 8 7 6 6 5 4 6 8 9 10 14 14 12 12 14 14 13 13 13 13 13 13 13 13 12 12 11 10 9 9 9 8 8 8 8 7 8 8 7 8 7 7 7 7 8 7 7 7 7 7 7 6 6 6 7 7 7 8
7 6 7 7 7 7 5 4 4 3 5 6 5 4 3 3 3 4 4 4 5 5 6 6 6 6 8 8 8 7 7 6 5 7 8 8 11 14 15 15 14 14 15 15 14 14 14 14 14 13 12 11 10 9 9 8 8 8 8 8 7 7 7 7 7 7 8 8 8 9 9 10 10 10 9 9 8 8 7 7 7 7 8 8 9
7 6 6 6 6 6 4 3 3 4 6 8 7 6 5 4 4 3 3 3 3 4 5 6 6 6 7 8 9 8 7 6 6 7 6 5 9 11 9 11 16 16 15 14 14 14 14 14 13 12 11 10 9 8 8 8 8 8 7 7 7 8 8 9 10 10 11 11 11 11 12 12 12 12 12 11 11 10 10 9 9 9 9 9 9
6 6 6 6 6 5 4 3 2 4 7 10 8 7 6 5 4 3 3 3 3 4 4 5 6 7 7 8 10 9 8 7 7 7 6 5 8 7 2 2 10 16 16 14 14 14 13 13 12 11 11 10 9 8 8 7 7 7 7 7 8 9 11 12 12 13 13 13 12 12 12 12 12 12 12 12 12 12 11 11 11 11 11 11 11
5 6 6 6 5 5 5 4 2 4 7 11 10 8 7 7 5 4 4 4 3 3 3 4 5 6 7 8 9 10 9 8 7 6 6 7 8 5 1 2 1 8 15 16 14 14 13 12 12 11 11 10 9 8 7 6 6 6 7 8 9 11 12 13 14 14 14 13 12 12 12 12 12 13 13 13 13 13 13 13 13 13 13 14 13
4 5 6 5 4 6 5 3 2 3 6 10 10 7 7 7 6 6 5 5 4 3 2 2 3 6 8 9 10 10 9 8 7 7 8 9 8 5 3 2 3 3 7 13 14 13 12 11 11 10 10 10 8 7 6 6 6 7 8 10 11 13 13 13 12 12 11 11 11 11 12 13 13 14 15 15 15 15 15 15 16 17 17 16 16
6 5 5 4 4 6 6 3 2 3 6 9 9 7 7 8 7 6 6 5 3 2 3 3 3 6 8 10 10 10 9 9 9 10 10 9 8 6 4 5 2 4 4 6 8 11 11 10 10 9 9 8 7 7 6 7 8 9 10 12 13 13 12 10 9 8 9 9 10 11 12 13 14 15 16 17 18 18 18 19 20 20 20 20 19
7 5 5 4 4 6 6 4 4 4 6 8 8 7 7 8 8 7 6 6 4 3 4 4 5 7 9 10 10 9 10 11 10 11 11 9 8 6 4 4 2 1 3 2 2 8 11 11 10 10 9 8 7 7 7 8 9 10 11 12 12 11 8 6 6 6 7 8 9 11 12 14 15 17 17 18 19 20 21 22 23 24 23 22 21
7 6 5 5 6 6 6 6 6 5 6 7 7 7 8 9 8 7 6 6 4 3 5 5 6 7 8 9 10 10 10 11 11 10 9 8 7 6 5 5 4 4 4 2 1 5 10 12 11 10 10 9 8 8 8 8 9 11 11 11 9 7 4 3 3 4 5 7 8 10 12 14 16 17 18 19 21 22 23 24 25 26 25 24 22
7 7 7 6 7 8 8 7 7 7 7 7 7 8 9 9 8 7 6 6 5 4 4 5 6 6 7 8 9 9 9 9 9 8 7 7 7 6 6 6 5 6 7 6 4 3 7 10 11 11 11 10 8 7 8 8 9 10 10 9 6 5 4 2 1 2 4 6 8 10 11 13 15 16 17 19 21 22 24 25 27 27 27 26 23
8 8 8 7 7 8 9 8 8 8 8 8 8 9 10 10 8 7 6 7 7 7 5 4 4 5 5 6 7 7 6 6 6 6 6 6 6 7 7 7 7 8 9 10 8 6 5 8 10 11 11 10 9 8 8 9 9 9 9 7 6 5 4 3 3 4 5 7 9 10 11 12 14 15 17 18 20 22 24 26 28 28 28 26 24
8 9 10 9 9 9 9 9 9 10 11 10 10 11 11 10 9 8 7 7 7 8 7 5 5 4 4 4 5 5 5 5 5 6 7 7 7 8 9 10 11 11 12 13 13 10 7 7 9 11 12 11 10 10 10 10 10 9 8 7 6 5 4 5 6 7 8 9 10 11 12 13 14 15 17 19 20 22 24 26 28 28 27 26 24
7 8 10 10 10 10 10 10 11 11 12 12 12 12 12 11 11 10 9 8 7 7 7 7 7 7 6 6 5 5 5 5 6 7 8 9 9 10 9 10 11 12 14 16 16 14 10 7 8 10 12 12 12 11 11 11 10 9 9 8 7 6 6 7 8 10 11 11 12 12 13 14 15 16 17 19 21 23 24 27 28 28 26 24 23
5 7 10 11 11 10 10 11 12 12 13 14 13 13 13 12 12 11 10 9 8 7 6 6 7 7 8 8 7 7 7 7 7 7 8 9 9 10 10 10 10 11 13 16 17 17 13 9 8 10 12 13 14 13 12 12 11 10 9 9 9 8 9 10 11 12 13 13 14 14 15 15 16 17 19 20 22 23 25 27 27 26 24 23 22
2 6 10 12 12 12 11 11 12 13 14 14 14 14 14 13 12 11 11 10 9 8 7 7 7 7 7 7 8 8 8 8 8 8 8 8 8 9 10 10 10 11 11 12 14 16 14 11 10 10 12 14 15 15 14 13 13 13 12 12 11 11 11 12 13 14 15 15 16 16 16 16 16 18 19 21 23 25 27 27 26 24 23 22 21
2 5 9 12 12 12 12 12 13 14 15 15 15 14 13 13 12 11 10 10 9 9 8 8 8 8 8 8 8 9 9 9 9 9 10 10 10 10 10 10 10 11 11 11 12 14 15 14 12 12 13 15 16 16 16 15 15 15 15 14 14 14 13 13 14 15 16 17 17 17 16 17 17 18 20 22 24 26 27 26 24 22 21 20 19
5 6 8 11 12 12 12 12 13 13 14 15 14 14 13 12 11 11 10 10 9 9 8 9 9 8 8 8 9 9 9 9 10 10 11 12 13 12 12 12 11 11 12 12 13 14 15 15 15 14 14 16 17 17 17 16 15 15 14 15 15 16 16 15 15 15 16 17 18 17 16 17 18 19 22 24 26 26 25 23 22 20 19 19 19
10 8 8 10 11 12 12 11 12 12 13 13 13 13 13 12 11 11 10 10 9 8 8 9 9 9 9 9 9 9 9 10 12 13 13 13 14 14 13 13 13 13 14 14 15 16 17 17 17 17 17 17 18 18 18 17 16 15 15 15 16 17 17 17 16 16 16 17 17 17 17 18 20 23 25 26 26 25 23 22 21 21 20 21 22
12 9 10 11 12 13 12 12 12 11 12 11 11 11 11 11 11 11 10 10 9 8 8 9 10 10 9 9 10 11 12 13 14 14 14 14 14 14 14 14 14 14 15 17 18 19 20 19 19 20 20 19 19 19 19 19 18 17 16 16 16 17 18 17 17 17 17 17 17 17 19 21 23 25 26 25 25 24 23 22 22 22 23 24 25
12 11 11 12 13 13 13 13 13 12 12 11 10 10 9 9 9 9 10 10 10 10 10 10 11 11 11 11 13 14 15 16 16 16 16 16 16 16 16 16 16 16 16 17 19 20 21 21 21 21 21 21 21 21 21 20 20 19 19 18 17 18 18 17 17 17 17 17 18 19 21 23 24 25 24 24 24 23 23 23 23 23 24 25 27
13 13 13 14 16 15 14 14 14 14 13 12 12 11 11 11 11 12 12 12 13 13 14 14 14 14 14 14 15 16 18 19 19 19 19 19 19 19 19 19 19 19 19 19 20 21 22 22 21 22 22 21 21 21 22 22 22 21 20 19 18 18 18 18 18 18 18 19 20 21 22 23 23 22 22 22 22 22 22 22 23 24 26 28 29
15 15 15 16 17 17 16 16 16 16 16 15 14 15 15 15 16 16 17 16 16 17 17 17 17 17 17 17 17 19 20 22 22 23 22 22 22 22 23 22 22 22 23 23 23 23 23 24 24 23 22 21 20 21 21 22 21 20 19 18 17 18 18 18 18 18 19 19 20 20 20 21 21 20 20 21 21 21 21 23 25 27 29 30 31
17 17 16 16 16 17 18 18 17 17 17 17 17 17 16 16 17 18 19 20 19 19 19 19 19 19 19 19 20 20 22 23 24 25 25 24 25 25 25 24 24 24 25 26 26 25 25 26 27 25 24 22 21 20 20 19 18 18 18 17 17 18 18 18 18 18 18 18 18 19 19 20 21 21 21 22 22 22 23 25 28 29 30 31 31
18 17 17 16 16 17 19 19 20 19 19 19 18 17 16 16 17 18 20 21 21 21 21 21 21 21 19 19 20 21 22 24 25 26 27 27 27 27 26 25 25 26 26 27 28 27 26 27 26 23 22 22 21 20 20 20 19 19 18 18 18 18 18 17 17 17 17 17 18 19 20 21 22 23 23 24 25 26 26 27 29 30 30 30 30
19 18 19 18 18 18 18 18 20 21 21 21 19 17 17 19 20 20 21 22 22 22 22 22 23 22 21 21 21 22 24 25 26 27 28 28 28 28 27 26 26 27 28 28 29 28 28 27 25 22 20 20 20 20 20 20 20 19 18 18 17 16 15 14 15 15 17 18 19 19 20 21 23 25 26 27 28 29 28 28 28 29 29 30 30
18 18 19 18 17 18 18 18 20 21 21 21 22 21 22 24 24 23 22 22 22 22 23 23 23 23 23 22 23 24 26 27 27 28 29 30 30 30 28 27 27 28 28 28 29 29 29 26 24 22 22 21 20 19 18 18 18 17 16 15 14 13 13 13 14 15 17 17 18 19 20 21 23 26 28 30 30 30 28 28 28 28 28 29 29
11 12 13 12 12 15 17 18 19 18 15 15 18 20 20 21 23 23 22 22 23 24 24 24 24 24 24 24 25 26 27 27 28 28 29 29 29 28 26 26 27 27 27 28 29 30 27 24 23 22 21 21 20 18 17 16 15 14 13 12 12 13 13 13 14 15 16 17 18 19 20 22 24 25 28 30 32 31 29 28 28 28 28 29 29
Wind_Direction
152 150 144 142 145 151 155 160 163 161 163 169 169 166 161 167 175 180 189 191 187 181 180 192 198 197 199 207 216 221 223 233 296 310 181 166 176 207 85 68 63 48 17 358 352 1 21 30 201 210 207 211 216 211 202 165 91 69 52 39 34 29 42 51 61 73 78 84 83 84 86 85 84 84 81 76 76 75 72 71 70 70 67 62 56
159 156 154 153 155 160 167 174 179 181 180 183 188 190 186 187 192 191 195 196 193 188 183 193 204 201 201 209 219 226 232 239 260 255 207 195 208 246 211 103 89 60 345 336 353 7 39 37 47 187 214 217 226 222 220 193 93 57 45 18 17 18 29 34 38 47 54 64 64 66 71 73 78 81 80 76 73 74 74 72 70 69 67 63 57
171 167 167 169 172 172 180 189 187 191 190 193 204 207 201 199 206 205 201 196 196 195 194 203 206 204 202 207 216 224 236 245 248 231 202 209 219 224 203 170 115 39 316 347 21 34 49 19 22 17 285 233 239 234 245 259 297 334 343 338 355 10 22 27 25 32 40 55 61 64 66 68 75 79 80 77 72 72 71 71 70 68 64 61 57
181 174 174 177 183 183 190 193 190 197 199 205 209 204 202 203 206 205 200 194 198 200 198 202 202 203 202 202 205 211 236 250 235 216 207 210 205 199 199 196 166 211 259 81 32 46 79 7 357 8 11 353 304 309 306 335 354 349 347 342 344 356 8 21 20 24 32 45 63 74 75 73 77 83 87 86 81 76 69 64 64 64 62 59 55
181 176 177 183 191 193 195 194 198 208 205 207 206 200 206 206 199 195 188 182 188 190 187 190 190 192 197 199 193 195 227 235 219 207 205 200 192 192 197 205 191 197 206 105 34 51 101 150 305 18 39 48 23 22 34 36 29 13 2 350 343 342 337 325 340 353 12 36 54 72 82 87 83 85 89 89 85 75 65 60 57 59 60 59 57
180 183 187 193 200 200 199 201 207 210 203 203 204 203 205 197 190 187 181 177 177 178 177 178 177 179 187 187 174 177 201 205 201 199 198 194 189 193 197 202 197 191 185 136 67 57 83 97 108 70 66 59 38 41 47 47 41 31 23 15 4 348 326 292 268 297 346 21 48 64 73 77 74 73 75 74 69 66 62 59 57 57 58 57 57
187 194 203 206 207 205 205 209 211 208 204 206 205 204 201 188 184 181 175 174 174 176 179 173 165 166 173 174 171 169 172 187 200 200 195 186 181 192 194 193 197 191 177 142 103 71 76 96 146 163 92 68 53 55 50 47 40 32 32 41 44 43 36 26 214 213 342 350 23 52 58 59 61 62 64 66 65 66 65 64 61 58 57 55 55
197 207 220 215 210 208 209 213 214 209 205 208 206 203 200 188 184 175 161 165 175 180 186 177 159 157 163 166 169 164 156 170 187 192 185 175 179 193 190 180 186 191 179 148 121 105 80 89 130 141 112 90 72 66 58 58 43 33 40 52 58 60 60 60 60 56 38 21 25 44 56 58 62 63 64 68 71 72 70 66 62 59 58 59 59
209 222 231 220 214 213 212 211 212 208 204 206 205 206 202 192 191 180 159 159 174 178 182 177 157 152 163 169 172 167 162 167 173 178 175 169 178 195 191 174 175 190 188 154 138 152 129 80 81 109 118 121 104 82 83 89 67 46 50 55 60 63 63 62 59 57 56 59 62 67 71 74 77 78 78 77 75 74 69 66 64 62 60 59 62
224 233 234 225 219 212 207 207 209 208 207 207 207 211 208 197 194 189 173 166 170 172 172 173 163 158 162 168 173 169 165 170 171 170 166 164 172 185 189 182 177 186 188 165 159 162 146 111 85 104 115 122 115 99 104 114 102 84 67 61 62 60 58 60 62 63 62 65 70 74 77 79 83 87 87 83 77 74 73 74 71 68 65 60 59
228 229 223 216 211 204 200 202 205 203 205 210 210 211 211 202 192 188 186 177 169 169 170 173 167 162 165 167 167 164 162 167 167 161 161 165 170 176 182 190 187 184 184 177 171 161 154 162 119 102 102 112 117 107 112 124 118 119 109 74 67 51 43 49 59 61 60 62 66 69 69 67 69 73 79 82 81 81 83 86 85 82 76 69 62
214 208 202 198 195 193 193 194 196 193 198 208 208 207 208 202 189 184 190 187 174 170 176 180 170 163 169 174 173 169 166 166 165 163 165 168 167 171 180 188 188 180 183 190 171 164 169 164 110 81 79 93 110 115 118 126 123 133 173 31 25 8 15 13 29 42 39 43 47 54 57 56 58 61 67 75 82 86 90 93 94 90 85 79 70
190 189 190 189 183 182 186 187 188 187 189 197 199 201 200 192 187 182 184 190 183 175 176 183 181 171 170 174 174 170 167 167 170 171 171 169 167 171 181 188 187 179 183 197 184 173 173 153 105 63 52 71 93 110 115 118 107 120 267 305 323 310 322 315 297 292 299 336 3 21 43 48 53 57 60 69 78 83 88 91 93 91 86 81 72
183 186 186 181 177 181 186 185 187 188 189 190 190 193 193 188 188 186 183 183 185 182 178 183 191 188 178 169 159 155 160 168 171 172 170 169 169 171 181 191 191 190 194 198 198 191 179 162 134 58 30 33 40 44 78 92 61 30 305 308 310 284 267 265 272 277 274 276 296 321 15 41 48 54 53 60 75 83 89 91 90 87 81 73 66
181 182 184 181 180 184 188 189 187 188 191 190 188 189 191 191 189 189 187 181 183 185 179 182 190 191 183 168 154 146 151 168 170 169 171 170 172 175 189 203 202 207 210 203 202 200 194 186 188 293 311 319 336 339 337 337 325 325 323 314 307 296 274 254 257 281 285 273 272 280 293 23 40 48 41 43 65 81 90 95 94 88 75 62 53
176 178 180 180 181 180 184 187 182 184 188 188 192 193 191 192 191 191 191 187 187 188 181 181 186 190 187 175 169 157 152 172 165 161 177 174 177 187 193 203 210 219 219 214 211 207 211 212 209 260 286 298 315 322 322 321 304 307 322 322 314 311 301 260 236 291 305 287 254 249 251 275 295 321 358 22 50 72 88 100 99 84 61 38 28
175 177 173 172 173 173 179 182 180 186 188 187 193 196 193 195 198 197 196 193 193 195 190 185 184 194 201 191 181 173 180 187 161 150 186 183 179 193 199 208 219 223 214 214 217 215 225 228 208 251 290 308 313 329 356 360 350 330 356 21 45 52 17 12 344 359 10 7 336 207 237 252 248 255 267 269 288 70 86 94 71 40 26 12 5
173 174 166 166 172 171 174 179 183 190 191 192 194 197 199 199 199 202 203 199 197 201 198 193 190 196 203 204 203 197 199 197 172 158 175 171 168 184 183 199 208 200 190 191 200 199 210 198 131 137 57 45 42 72 82 74 77 70 52 53 62 66 64 69 59 35 48 54 66 98 148 274 262 259 249 250 260 255 264 288 314 320 327 337 341
165 173 172 174 179 178 177 178 183 188 191 196 197 198 205 202 198 203 206 205 206 204 200 200 200 201 204 207 214 220 232 212 193 178 163 144 147 166 139 134 167 168 168 170 164 149 141 128 122 110 89 86 87 89 93 92 85 78 75 74 74 78 82 84 76 67 73 82 85 86 75 61 53 32 327 271 268 255 264 279 281 285 302 315 336
158 169 178 180 185 188 185 183 184 187 191 197 199 199 200 200 200 204 207 209 210 206 201 203 205 210 214 210 212 224 261 261 210 204 177 146 134 135 136 165 190 161 143 148 147 142 136 128 120 108 99 94 94 96 94 89 82 79 82 80 78 80 82 82 77 71 72 79 85 86 77 68 65 63 62 60 59 71 290 300 308 315 338 350 18
154 155 169 175 180 184 185 186 188 191 193 195 200 204 204 201 201 204 209 210 210 206 203 204 206 215 223 216 213 219 242 240 200 212 200 155 141 145 157 186 194 135 122 131 131 131 129 123 118 111 107 102 96 94 89 83 80 82 85 83 80 79 78 74 68 62 64 72 77 76 69 65 65 66 66 65 66 68 63 40 18 8 8 10 360
145 146 160 168 168 173 178 182 189 192 194 194 196 205 210 211 207 203 208 210 212 211 207 205 203 211 221 219 216 218 232 229 202 203 201 173 162 164 176 194 173 129 124 127 124 124 122 120 119 115 110 105 100 95 89 88 88 88 87 84 81 78 73 65 59 57 60 64 66 66 64 63 60 58 57 56 57 55 49 40 26 13 7 4 352
149 151 160 167 166 172 178 180 186 192 197 197 196 201 209 211 209 205 207 211 215 214 209 207 202 204 211 214 216 222 237 235 214 208 204 194 181 174 180 186 159 136 129 125 120 121 120 119 118 114 111 106 103 101 98 99 97 92 88 83 79 73 67 63 59 61 62 62 63 61 59 57 55 54 51 48 46 43 39 32 24 14 8 2 356
163 161 163 168 167 171 172 167 168 182 196 198 197 202 207 207 202 202 206 211 214 213 212 215 209 202 203 208 212 214 214 214 224 223 213 216 201 176 168 166 151 139 131 126 122 120 117 117 114 111 110 107 105 105 105 104 101 96 91 85 80 74 68 64 59 57 56 56 57 56 55 53 51 49 46 44 39 34 29 23 16 9 3 356 351
162 168 170 168 163 163 161 150 140 147 176 186 193 202 207 205 193 193 201 204 207 207 207 212 208 200 200 204 201 190 185 192 209 210 203 213 208 176 156 154 152 141 134 130 128 124 120 118 118 115 112 110 110 111 111 110 107 102 97 92 87 79 70 62 55 50 48 48 49 51 51 48 44 41 37 34 29 23 17 10 3 357 351 347 343
152 165 173 168 162 161 160 149 122 127 167 174 182 195 200 195 182 185 195 196 199 200 201 202 201 201 200 197 190 177 178 190 190 190 194 201 197 178 158 151 149 142 139 138 134 131 130 127 124 122 119 118 119 119 119 118 113 108 102 96 89 79 71 67 65 65 62 60 59 58 58 56 52 48 43 39 34 28 21 13 4 356 349 343 338
149 163 176 174 174 172 173 172 115 118 163 171 173 181 184 179 175 181 191 189 192 195 198 201 201 203 198 192 188 180 182 189 181 180 190 197 194 190 175 157 152 146 144 145 143 139 137 135 132 130 129 129 129 127 126 123 118 113 104 94 88 86 87 86 82 80 77 74 71 69 66 62 56 52 47 44 40 36 31 24 17 10 3 356 348
154 167 183 187 193 193 186 182 121 112 157 168 167 168 165 161 162 165 167 167 173 184 192 196 196 197 195 193 192 189 187 182 175 175 177 187 194 193 200 169 162 157 152 150 150 148 145 144 140 139 139 138 137 134 131 128 121 114 105 97 99 102 101 97 92 87 82 78 73 69 64 59 54 49 45 41 37 33 30 25 19 14 8 4 359
170 171 188 199 202 196 185 174 125 106 153 167 167 163 154 148 147 139 135 139 142 153 176 190 193 192 191 190 187 186 183 172 170 172 164 174 189 183 129 15 106 162 162 159 157 155 153 152 149 149 150 147 145 143 138 133 126 118 113 110 111 113 110 103 97 90 85 80 75 68 62 56 50 45 41 38 34 30 26 22 17 12 7 3 0
192 180 191 205 199 185 181 178 132 108 151 167 169 164 154 149 146 138 134 130 121 117 128 150 179 186 182 179 176 175 174 166 166 166 158 166 176 162 138 124 46 63 156 160 161 161 160 160 159 159 159 157 155 152 148 143 139 133 127 123 121 119 113 104 94 86 80 72 63 55 48 42 37 33 30 27 25 22 20 18 14 10 6 2 360
199 189 187 197 189 179 181 187 150 124 149 166 172 173 162 154 154 154 147 135 123 116 111 108 138 165 169 169 170 169 168 166 163 157 154 161 169 154 143 155 97 46 97 136 156 167 169 168 168 166 165 168 166 162 162 161 157 150 141 133 129 126 117 102 86 73 61 51 42 35 30 25 21 18 15 13 12 10 10 9 8 6 4 2 359
195 191 186 185 179 175 178 179 159 139 149 165 175 178 162 151 152 159 155 145 144 145 125 108 120 146 159 164 167 167 166 162 154 150 152 160 173 177 182 195 208 125 126 86 113 166 170 172 175 174 171 173 174 170 169 170 168 163 155 146 142 137 124 103 81 60 45 33 27 22 17 14 11 8 6 2 1 1 1 1 1 0 360 358 357
188 194 192 179 171 168 166 166 160 151 152 159 166 164 154 149 151 158 155 147 151 153 137 125 120 132 149 160 163 162 160 157 151 150 159 170 181 198 221 236 252 244 213 204 130 168 174 175 177 179 176 175 176 173 169 169 172 173 169 163 161 161 153 125 81 48 29 15 9 8 7 4 1 360 358 355 353 353 354 354 354 354 354 353 352
182 192 193 180 171 168 165 168 168 166 164 160 157 151 146 148 154 159 162 158 165 170 145 133 128 126 139 157 162 160 157 157 157 163 177 189 197 209 230 244 257 262 249 235 226 206 193 186 183 183 182 178 173 170 165 164 169 177 180 183 191 202 213 224 285 356 353 348 347 351 354 352 350 350 349 346 346 347 347 348 349 349 348 347 346
179 188 188 182 176 170 169 174 173 169 169 163 156 149 144 146 150 154 158 160 171 184 180 157 144 133 136 154 165 171 173 174 177 187 196 206 221 234 244 251 257 264 262 250 240 239 228 209 199 194 189 183 173 164 164 167 171 178 183 190 203 215 227 251 279 300 312 319 324 331 337 338 339 339 338 338 339 340 341 342 344 344 343 342 341
180 190 188 181 178 174 170 174 174 168 166 163 158 154 148 146 146 145 145 148 162 182 195 200 194 180 170 167 170 175 182 191 197 205 212 223 241 253 258 261 262 262 262 256 246 240 244 239 221 204 194 190 183 173 173 177 180 183 188 194 203 218 238 261 276 287 294 301 308 315 320 324 326 327 329 331 333 334 336 338 338 338 337 336 335
181 195 195 186 179 178 175 175 174 169 166 165 163 159 154 152 151 147 145 147 155 172 189 202 209 208 203 201 201 199 201 211 217 223 232 239 247 255 264 272 275 272 265 260 252 242 242 255 248 223 205 198 195 190 187 189 191 195 203 212 220 231 247 258 267 275 283 292 299 303 306 310 315 318 321 324 327 329 331 332 332 332 331 330 329
181 201 206 198 184 182 188 185 180 176 172 170 168 165 163 162 161 160 160 161 163 168 178 190 200 209 213 216 224 230 235 239 239 241 246 251 256 260 267 274 281 281 272 263 255 247 243 249 250 239 224 212 205 204 203 204 208 211 217 225 232 242 253 261 265 271 278 285 288 290 295 301 307 311 315 319 322 324 325 326 327 326 325 325 325
197 217 214 209 197 188 196 199 191 186 182 178 177 174 173 174 174 175 177 177 178 181 186 193 201 211 218 223 230 237 245 251 254 257 261 265 269 270 271 274 276 277 275 266 253 243 238 236 235 236 230 218 210 209 212 216 221 225 227 229 234 242 250 257 262 267 271 275 277 280 288 296 301 306 311 315 317 319 321 322 322 322 322 322 321
304 253 225 220 214 201 201 207 204 197 192 190 189 186 187 188 188 190 192 193 197 199 203 209 217 225 230 235 240 244 253 263 268 273 277 278 279 276 274 274 273 270 268 262 244 232 231 234 235 233 228 222 217 216 218 221 226 231 233 235 238 243 249 255 258 260 263 266 269 275 284 292 297 303 307 312 314 316 318 319 319 319 319 318 317
276 276 239 228 226 215 209 212 214 211 206 203 203 202 203 204 204 205 207 211 216 219 223 227 235 247 252 250 249 250 255 262 267 272 276 279 281 280 276 272 270 268 263 252 238 231 234 240 242 238 230 225 224 225 228 233 236 237 239 241 245 247 251 257 258 258 260 264 270 276 284 290 295 300 306 310 313 314 315 316 317 317 317 316 315
251 268 243 230 226 219 217 216 219 222 220 218 219 219 220 223 224 225 227 235 241 244 248 250 253 263 268 262 256 253 256 259 263 268 273 275 277 278 277 273 268 265 260 252 244 241 244 249 250 245 238 234 234 233 236 240 243 244 244 246 248 249 251 256 257 256 260 266 272 279 284 291 297 302 307 310 312 313 314 316 317 318 319 319 318
241 252 239 230 223 219 219 219 220 223 224 224 227 229 232 233 234 236 240 246 252 258 264 262 257 258 262 263 263 264 267 269 272 274 276 277 279 280 280 277 271 264 259 255 253 250 250 252 252 248 245 243 242 240 241 242 244 246 249 250 250 250 252 255 254 256 264 270 273 279 286 294 300 305 308 310 312 314 316 317 318 319 320 319 319
238 245 240 234 229 225 225 227 228 226 224 224 225 227 233 237 238 241 245 249 255 260 266 266 260 256 258 262 266 269 273 276 278 279 279 281 284 285 284 282 277 270 262 257 255 254 253 253 252 250 250 249 247 246 248 249 248 248 250 251 251 251 253 254 255 259 266 272 277 284 292 299 304 306 308 310 312 314 316 316 318 318 318 318 317
241 244 245 240 234 229 230 235 238 236 233 235 237 238 241 246 250 252 255 259 262 266 271 270 267 266 266 267 268 272 275 278 279 280 280 282 284 284 284 282 278 274 268 262 259 257 256 254 250 248 247 247 248 250 253 254 252 250 250 250 249 250 252 254 257 261 268 276 284 291 297 301 302 305 307 308 310 312 314 316 317 317 317 317 317
242 244 245 243 236 231 233 239 241 240 239 243 247 249 248 248 253 257 260 263 264 267 270 269 267 269 272 272 272 273 275 277 278 277 276 276 277 279 280 278 276 273 270 267 264 261 258 255 253 250 247 246 246 248 250 251 250 247 245 244 244 246 249 253 259 266 275 284 291 297 300 301 302 306 308 310 313 315 316 316 316 316 317 317 317
241 242 241 240 237 235 238 243 244 242 241 243 247 248 244 243 247 251 255 260 262 264 265 265 267 270 271 271 271 272 273 274 275 274 273 272 274 276 276 275 272 270 267 265 264 262 259 256 253 250 247 245 241 236 235 237 238 239 239 240 243 248 253 259 268 277 286 293 298 301 303 304 306 309 311 312 313 313 314 314 315 316 317 317 316
236 236 234 235 235 236 239 242 244 244 242 240 244 245 242 242 245 247 251 255 257 258 260 265 270 272 270 269 270 271 272 272 272 272 274 276 277 277 276 274 271 267 264 262 261 260 257 256 254 247 241 241 241 239 237 237 239 241 243 245 250 256 262 271 280 287 293 296 300 302 304 306 308 308 310 310 310 310 311 312 314 315 315 316 316
232 232 233 233 231 234 240 243 246 246 243 242 245 248 248 250 252 251 253 255 255 255 259 265 270 270 268 267 267 269 270 271 273 274 275 278 280 281 280 277 272 267 262 259 258 256 255 254 254 248 243 243 246 246 245 242 241 243 248 252 258 263 270 278 284 289 293 296 298 302 304 306 307 308 309 308 308 308 311 312 313 314 316 316 316
232 234 237 238 237 240 246 253 257 256 251 249 250 251 251 253 254 253 254 257 258 259 262 265 266 268 268 268 268 269 271 273 274 275 277 279 280 282 282 278 272 267 263 259 256 254 252 250 249 247 245 246 246 245 244 242 242 245 251 255 260 267 273 278 284 289 294 297 300 303 305 305 307 307 307 307 308 310 312 314 315 316 316 315 314
223 226 232 236 238 239 241 248 254 256 252 245 246 249 250 250 250 251 255 260 262 264 266 267 267 267 268 267 268 270 272 274 275 275 277 278 280 281 280 275 272 268 263 259 256 252 249 249 249 246 243 243 244 243 242 242 242 244 248 254 261 268 275 281 288 293 296 299 302 304 304 304 305 306 308 311 313 314 316 317 317 317 316 314 314